Location: Rodson Ranch
(38.7188°N, 119.3202°W)
Time: 13:42:13
(UTC+00:00)

Cosmos 1606 Rocket - Pass Details

Date: 29 October 2020
Orbit: 603 x 631 km, 82.5° (Epoch: 01 December)

Event Time Altitude Azimuth Distance (km) Brightness Sun altitude
Rises 13:13:38 0° 340° (NNW) 2,931 6.8 -13.8°
Reaches altitude 10° 13:16:06 10° 329° (NNW) 2,019 5.8 -13.3°
Maximum altitude 13:19:55 28° 271° (W) 1,186 4.4 -12.6°
Drops below altitude 10° 13:23:43 10° 212° (SSW) 2,004 5.9 -11.9°
Sets 13:26:10 0° 200° (SSW) 2,904 6.9 -11.4°
